[[{"header":{"parameterUnit":"m.s-1","parameterCategory":1,"la1":30.2991,"la2":30.254,"lo1":-89.0895,"lo2":-89.0444,"dy":0.0017,"dx":0.0017,"nx":28,"ny":28,"refTime":"2025-04-16T03:00:00:Z","depth":0,"parameterNumber":2,"parameterNumberName":"U-component_of_WINDS"},"data":[0,0,0,0,0,0,0,0,0,0,0,0,0,0,0,0,0,0,0,0,0,0,0,0,0,0,0,0,0,0,0,0,0,0,0,0,0,0,0,0,0,0,0,0,0,0,0,0,0,0,0,0,0,0,0,0,0,0,-5.8245,-5.8246,0,-5.8287,-5.8288,-5.8288,-5.8182,-5.8179,-5.8176,-5.8173,-5.8215,-5.822,-5.8224,0,0,0,0,0,0,0,0,0,0,0,0,0,-5.8075,-5.8078,-5.8245,-5.8246,-5.8246,-5.8287,-5.8288,-5.8288,-5.8183,-5.8179,-5.8175,-5.8171,-5.8214,-5.8219,-5.8224,0,0,0,0,0,0,0,0,0,0,0,0,0,-5.8136,-5.808,-5.8245,-5.8199,-5.8195,-5.8287,-5.8288,-5.8288,-5.8184,-5.8179,-5.8174,-5.8169,-5.8212,-5.8219,-5.8225,-5.8364,0,0,-5.8244,-5.8247,0,0,0,0,0,0,0,0,-5.8133,-5.8142,-5.8205,-5.8202,-5.8198,-5.8224,-5.8243,-5.8314,-5.8185,-5.8188,-5.8172,-5.8167,-5.8223,-5.8228,-5.8246,-5.8366,-5.8368,-5.8245,-5.8249,-5.8251,-5.8253,0,0,0,0,0,0,0,-5.8129,-5.814,-5.8262,-5.8206,-5.8202,-5.8176,-5.8179,-5.8256,-5.8233,-5.8187,-5.818,-5.8186,-5.822,-5.8241,-5.8247,-5.8368,-5.8245,-5.825,-5.8254,-5.8257,-5.8605,-5.861,0,0,0,0,0,0,-5.813,-5.8137,-5.826,-5.8263,-5.8152,-5.8183,-5.8187,-5.8221,-5.8232,-5.8228,-5.819,-5.8181,-5.8232,-5.8239,-5.8248,-5.8412,-5.8251,-5.8257,-5.8261,-5.86,-5.8606,-5.8612,0,0,0,0,0,0,-5.8127,-5.8142,-5.8259,-5.8198,-5.8211,-5.8191,-5.8231,-5.8225,-5.8245,-5.8234,-5.8229,-5.8216,-5.8229,-5.8239,-5.8336,-5.8412,-5.826,-5.8266,-5.8593,-5.8602,-5.8609,-5.8742,0,0,0,0,0,0,-5.8123,-5.8142,-5.8194,-5.82,-5.8215,-5.8347,-5.8235,-5.8229,-5.8257,-5.8245,-5.8257,-5.8254,-5.8225,-5.8327,-5.8343,-5.8418,-5.8271,-5.8587,-5.8597,-5.8607,-5.8731,-5.8754,-5.8773,0,0,0,0,0,-5.8117,-5.8229,-5.8197,-5.8213,-5.828,-5.8351,-5.836,-5.8324,-5.8263,-5.8316,-5.8309,-5.8254,-5.8401,-5.8338,-5.8354,-5.8433,-5.8582,-5.8594,-5.8606,-5.8721,-5.8749,-5.8773,0,0,0,0,0,0,-5.8232,-5.8229,-5.8194,-5.8312,-5.8333,-5.8333,-5.8399,-5.8355,-5.8394,-5.8381,-5.8336,-5.8339,-5.8446,-5.8449,-5.8378,-5.8569,-5.8481,-5.8497,-5.8563,-5.859,-5.861,-5.8608,-5.8276,0,0,0,0,0,-5.8272,-5.833,-5.8324,-5.8429,-5.8441,-5.8419,-5.8448,-5.842,-5.8439,-5.8448,-5.8447,-5.8469,-5.852,-5.8555,-5.8601,-5.8731,-5.8732,-5.8793,-5.8814,-5.8832,-5.8846,-5.8916,-5.8944,-5.8653,-5.8653,-5.8652,0,0,-5.8353,-5.8359,-5.8398,-5.8452,-5.8465,-5.8527,-5.8427,-5.8496,-5.8541,-5.8458,-5.855,-5.8551,-5.8572,-5.8687,-5.8737,-5.8693,-5.8927,-5.8847,-5.8861,-5.8867,-5.8932,-5.896,-5.8984,-5.8661,-5.8659,-5.8658,0,0,-5.8534,-5.8544,-5.8633,-5.8648,-5.8669,-5.8653,-5.8675,-5.8683,-5.868,-5.8772,-5.8711,-5.8765,-5.8854,-5.8871,-5.8892,-5.9081,-5.9033,-5.9098,-5.9209,-5.9278,-5.9301,-5.9321,-5.939,-5.9415,-5.9112,-5.9113,-5.9113,0,-5.8633,-5.8723,-5.8684,-5.8758,-5.8784,-5.8712,-5.8802,-5.8818,-5.8854,-5.8873,-5.8823,-5.8934,-5.8943,-5.9061,-5.9108,-5.9127,-5.9151,-5.9096,-5.9301,-5.9321,-5.9339,-5.9404,-5.943,-5.912,-5.912,-5.9119,-5.9118,0,-5.8845,-5.8909,-5.8978,-5.9014,-5.9048,-5.913,-5.9103,-5.9142,-5.911,-5.91,-5.9196,-5.9204,-5.9251,-5.9277,-5.9247,-5.9392,-5.9364,-5.9308,-5.9219,-5.9375,-5.9436,-5.946,-5.9132,-5.9129,-5.9127,-5.9125,0,0,-5.9099,-5.9113,-5.914,-5.9156,-5.9174,-5.9223,-5.9302,-5.9349,-5.9383,-5.941,-5.9476,-5.9554,-5.9503,-5.9526,-5.9498,-5.9558,-5.9709,-5.9495,-5.9495,-5.9535,-5.9871,-5.9913,-5.9943,-5.9677,-5.9681,-5.9685,-5.9869,0,-5.9278,-5.9414,-5.9381,-5.9515,-5.9574,-5.9507,-5.9576,-5.9595,-5.9589,-5.9638,-5.963,-5.9686,-5.9614,-5.9628,-5.9685,-5.9679,-5.9776,-5.9665,-5.9738,-5.9741,-5.9736,-5.9974,-6.0019,-6.0192,-5.9892,-5.9896,-5.9899,0,-5.9505,-5.9542,-5.9682,-5.9692,-5.9716,-5.9779,-5.982,-5.9867,-5.9888,-5.9879,-5.9906,-5.9866,-5.9945,-5.9855,-5.9963,-5.9888,-5.9916,-5.9918,-5.9924,-5.993,-5.983,-5.9987,-6.0247,-6.0273,-5.9936,-5.9933,-5.993,0,-5.9678,-5.9762,-5.9857,-5.9873,-5.9887,-5.9933,-5.9941,-5.9957,-5.9987,-6.0023,-6.0043,-6.0088,-6.0112,-6.0148,-6.0121,-6.0058,-6.0235,-6.0142,-6.023,-6.0231,-6.027,-6.0268,-6.0539,-6.0287,-6.0287,-6.0287,-6.0286,0,-5.9882,-5.9971,-5.9936,-5.9994,-6.0092,-6.0054,-6.0152,-6.0152,-6.0167,-6.0225,-6.017,-6.0225,-6.0186,-6.0239,-6.0218,-6.0312,-6.0323,-6.0319,-6.0312,-6.0324,-6.0325,-6.0342,-6.033,-6.0293,-6.0292,-6.0291,-6.0289,0,-6.0092,-6.0071,-6.0171,-6.0177,-6.018,-6.0252,-6.0257,-6.0312,-6.0301,-6.0375,-6.039,-6.0374,-6.0433,-6.041,-6.0472,-6.0459,-6.0579,-6.0556,-6.0572,-6.0567,-6.0656,-6.0649,-6.0948,-6.0986,-6.0709,-6.0712,-6.0714,0,-6.0223,-6.029,-6.0303,-6.0339,-6.0351,-6.0408,-6.0439,-6.0404,-6.0439,-6.0469,-6.052,-6.0575,-6.0616,-6.0715,-6.0708,-6.0756,-6.0735,-6.0837,-6.0742,-6.0752,-6.0738,-6.0734,-6.0742,-6.0856,-6.0859,-6.0862,-6.0864,0,-6.046,-6.0447,-6.0494,-6.0539,-6.0579,-6.0612,-6.064,-6.0672,-6.0639,-6.0681,-6.0741,-6.0774,-6.0838,-6.0894,-6.0937,-6.0945,-6.09,-6.0894,-6.0917,-6.093,-6.0937,-6.0935,-6.0625,-6.0887,-6.0885,-6.0883,-6.0882,-6.0881,-6.0635,-6.0692,-6.0711,-6.0766,-6.0784,-6.0812,-6.0865,-6.0861,-6.091,-6.096,-6.0937,-6.1007,-6.1027,-6.108,-6.1095,-6.115,-6.111,-6.1143,-6.1152,-6.1161,-6.1173,-6.0928,-6.1157,-6.1157,-6.1156,-6.1155,-6.1155,0,-6.087,-6.0879,-6.093,-6.0972,-6.1016,-6.0969,-6.0999,-6.1039,-6.1101,-6.1124,-6.1166,-6.1236,-6.129,-6.1288,-6.1338,-6.1382,-6.1363,-6.1397,-6.1393,-6.1396,-6.1205,-6.1181,-6.1412,-6.1412,-6.1411,-6.1411,-6.1411,-6.1411,-6.0997,-6.1092,-6.1081,-6.1184,-6.1192,-6.1261,-6.1282,-6.1308,-6.1326,-6.1407,-6.1451,-6.145,-6.1463,-6.1514,-6.1561,-6.1559,-6.1581,-6.1623,-6.1614,-6.1435,-6.141,-6.1385,-6.1362,-6.1628,-6.1628,-6.18,-6.1802,-6.1803]},{"header":{"parameterUnit":"m.s-1","parameterCategory":1,"la1":30.2991,"la2":30.254,"lo1":-89.0895,"lo2":-89.0444,"dy":0.0017,"dx":0.0017,"nx":28,"ny":28,"refTime":"2025-04-16T03:00:00:Z","depth":0,"parameterNumber":3,"parameterNumberName":"V-component_of_WINDS"},"data":[0,0,0,0,0,0,0,0,0,0,0,0,0,0,0,0,0,0,0,0,0,0,0,0,0,0,0,0,0,0,0,0,0,0,0,0,0,0,0,0,0,0,0,0,0,0,0,0,0,0,0,0,0,0,0,0,0,0,-1.9663,-1.9663,0,-1.9641,-1.9641,-1.9641,-1.9582,-1.958,-1.9579,-1.9578,-1.9556,-1.9557,-1.9557,0,0,0,0,0,0,0,0,0,0,0,0,0,-1.9654,-1.9655,-1.9663,-1.9663,-1.9663,-1.9641,-1.9641,-1.964,-1.9582,-1.958,-1.9579,-1.9577,-1.9556,-1.9557,-1.9557,0,0,0,0,0,0,0,0,0,0,0,0,0,-1.9648,-1.9655,-1.9663,-1.9631,-1.9628,-1.9641,-1.9641,-1.964,-1.9582,-1.958,-1.9578,-1.9577,-1.9556,-1.9557,-1.9558,-1.9601,0,0,-1.956,-1.9561,0,0,0,0,0,0,0,0,-1.9648,-1.9648,-1.9636,-1.9633,-1.963,-1.9612,-1.9629,-1.9627,-1.9583,-1.96,-1.9578,-1.9576,-1.9576,-1.9575,-1.9576,-1.96,-1.9599,-1.956,-1.9561,-1.9561,-1.9562,0,0,0,0,0,0,0,-1.9649,-1.9649,-1.9654,-1.9636,-1.9632,-1.9617,-1.9614,-1.9629,-1.9599,-1.9598,-1.9594,-1.9592,-1.9574,-1.9575,-1.9575,-1.9599,-1.956,-1.9561,-1.9562,-1.9562,-1.9656,-1.9658,0,0,0,0,0,0,-1.9654,-1.9649,-1.9655,-1.9654,-1.9634,-1.9619,-1.9615,-1.962,-1.9599,-1.9593,-1.9593,-1.9589,-1.9574,-1.9574,-1.9574,-1.9622,-1.9561,-1.9562,-1.9563,-1.9654,-1.9657,-1.9659,0,0,0,0,0,0,-1.9654,-1.9655,-1.9656,-1.965,-1.9649,-1.9621,-1.9626,-1.962,-1.9621,-1.9595,-1.9589,-1.9599,-1.9573,-1.9572,-1.9594,-1.9621,-1.9562,-1.9563,-1.9652,-1.9655,-1.9658,-1.9721,0,0,0,0,0,0,-1.9654,-1.9655,-1.9672,-1.9651,-1.965,-1.9677,-1.9628,-1.9621,-1.9622,-1.9616,-1.9599,-1.9595,-1.9571,-1.9593,-1.9595,-1.9621,-1.9564,-1.9649,-1.9653,-1.9657,-1.9716,-1.9726,-1.9734,0,0,0,0,0,-1.9654,-1.9691,-1.9673,-1.9674,-1.967,-1.9679,-1.9678,-1.965,-1.9625,-1.9641,-1.9624,-1.9595,-1.9617,-1.9596,-1.9598,-1.9624,-1.9648,-1.9652,-1.9656,-1.9713,-1.9724,-1.9734,0,0,0,0,0,0,-1.9716,-1.9688,-1.9667,-1.9699,-1.9692,-1.9669,-1.9689,-1.9663,-1.9664,-1.9658,-1.9624,-1.962,-1.9647,-1.9637,-1.9614,-1.9664,-1.9628,-1.9633,-1.967,-1.968,-1.9689,-1.9691,-1.9565,0,0,0,0,0,-1.9733,-1.9743,-1.9718,-1.9748,-1.9745,-1.9718,-1.9721,-1.97,-1.9691,-1.9688,-1.9673,-1.9665,-1.967,-1.9675,-1.9678,-1.9714,-1.971,-1.9733,-1.9742,-1.9749,-1.9754,-1.9772,-1.9782,-1.9673,-1.9673,-1.9673,0,0,-1.9769,-1.9755,-1.9763,-1.976,-1.9752,-1.9763,-1.9716,-1.9729,-1.9737,-1.969,-1.9709,-1.9698,-1.9687,-1.9717,-1.9729,-1.971,-1.9783,-1.9755,-1.9761,-1.9762,-1.9777,-1.9788,-1.9797,-1.9676,-1.9676,-1.9675,0,0,-1.9841,-1.9831,-1.9855,-1.9847,-1.9835,-1.9816,-1.9822,-1.9803,-1.9793,-1.9812,-1.9777,-1.9785,-1.9795,-1.9789,-1.9787,-1.9854,-1.9827,-1.9856,-1.9901,-1.9919,-1.9927,-1.9935,-1.9959,-1.9967,-1.9861,-1.9861,-1.9861,0,-1.9887,-1.9902,-1.987,-1.9886,-1.9885,-1.9842,-1.9865,-1.986,-1.985,-1.985,-1.9829,-1.9839,-1.9829,-1.9856,-1.9872,-1.9872,-1.9877,-1.9858,-1.9929,-1.9936,-1.9942,-1.9964,-1.9974,-1.9864,-1.9864,-1.9864,-1.9863,0,-1.9959,-1.997,-1.999,-1.9981,-1.9983,-2.0002,-1.9973,-1.9978,-1.9957,-1.994,-1.9959,-1.9945,-1.9945,-1.9949,-1.9929,-1.9973,-1.9961,-1.9935,-1.9897,-1.9957,-1.9977,-1.9985,-1.9869,-1.9868,-1.9867,-1.9866,0,0,-2.0071,-2.0042,-2.005,-2.0045,-2.0028,-2.0036,-2.0053,-2.0051,-2.0056,-2.005,-2.0064,-2.0072,-2.0047,-2.0045,-2.0023,-2.0039,-2.0092,-2.001,-2.0009,-2.0026,-2.0139,-2.0159,-2.017,-2.0074,-2.0075,-2.0076,-2.014,0,-2.0138,-2.0165,-2.0137,-2.017,-2.0179,-2.0137,-2.0152,-2.0143,-2.0127,-2.0133,-2.0115,-2.0122,-2.0088,-2.0087,-2.01,-2.0083,-2.0114,-2.0078,-2.0086,-2.0086,-2.009,-2.018,-2.0202,-2.0263,-2.0148,-2.0149,-2.015,0,-2.022,-2.0217,-2.0252,-2.0231,-2.0233,-2.0247,-2.0243,-2.0249,-2.0237,-2.0225,-2.0222,-2.0194,-2.0209,-2.0172,-2.0192,-2.0168,-2.0169,-2.0161,-2.0163,-2.0163,-2.0122,-2.0183,-2.0281,-2.0291,-2.0162,-2.0161,-2.016,0,-2.0298,-2.0302,-2.0323,-2.032,-2.0296,-2.0307,-2.0298,-2.0284,-2.0285,-2.0281,-2.0281,-2.028,-2.0279,-2.0278,-2.0251,-2.0227,-2.0274,-2.0235,-2.0264,-2.0265,-2.0277,-2.0277,-2.0377,-2.0278,-2.0277,-2.0277,-2.0277,0,-2.0376,-2.0399,-2.0357,-2.037,-2.0394,-2.036,-2.0384,-2.0371,-2.0359,-2.0368,-2.0332,-2.0342,-2.0305,-2.0311,-2.029,-2.0309,-2.0309,-2.0299,-2.0293,-2.0303,-2.0304,-2.0303,-2.0299,-2.028,-2.0279,-2.0279,-2.0278,0,-2.0467,-2.0441,-2.046,-2.0436,-2.043,-2.0449,-2.0428,-2.0438,-2.042,-2.0432,-2.0433,-2.0404,-2.0408,-2.0381,-2.0381,-2.0366,-2.0396,-2.0383,-2.04,-2.0396,-2.0427,-2.0424,-2.0531,-2.0543,-2.0436,-2.0437,-2.0438,0,-2.0519,-2.0535,-2.0512,-2.0515,-2.0508,-2.0514,-2.0514,-2.0481,-2.0482,-2.047,-2.0482,-2.0483,-2.0482,-2.0491,-2.047,-2.047,-2.0456,-2.0494,-2.0456,-2.0465,-2.0457,-2.0456,-2.0458,-2.0502,-2.0503,-2.0504,-2.0505,0,-2.0614,-2.06,-2.0601,-2.0598,-2.0599,-2.0595,-2.0588,-2.0593,-2.0557,-2.056,-2.0564,-2.0564,-2.0562,-2.0564,-2.0559,-2.0549,-2.0522,-2.0517,-2.0524,-2.0534,-2.0543,-2.0538,-2.0422,-2.0515,-2.0514,-2.0513,-2.0513,-2.0512,-2.0687,-2.0699,-2.0684,-2.0687,-2.0678,-2.0672,-2.0681,-2.0663,-2.0665,-2.0661,-2.0642,-2.0649,-2.0636,-2.0626,-2.0618,-2.0623,-2.0606,-2.0615,-2.0618,-2.0621,-2.0626,-2.0542,-2.0622,-2.0622,-2.0622,-2.0622,-2.0621,0,-2.078,-2.0768,-2.077,-2.0762,-2.0764,-2.0736,-2.0727,-2.0731,-2.0737,-2.0727,-2.0727,-2.073,-2.0731,-2.071,-2.0708,-2.0716,-2.0704,-2.0717,-2.0716,-2.0715,-2.0643,-2.0637,-2.0728,-2.0728,-2.0727,-2.0727,-2.0727,-2.0727,-2.0828,-2.0847,-2.0831,-2.0844,-2.0832,-2.0838,-2.0835,-2.083,-2.0821,-2.0827,-2.0827,-2.0813,-2.0798,-2.0795,-2.0794,-2.0788,-2.0789,-2.0807,-2.0797,-2.073,-2.072,-2.071,-2.0704,-2.0808,-2.0808,-2.0868,-2.0868,-2.0869]}]]